EW5474 Weather Reports


Display with metric or nautical units.
time (UTC)temp
F
wind
direction
speed
MPH
gust
MPH
rain 1hr
in
rain 24hr
in
rain mn
in
humidity
%
barometer
mb
20260904235820 83 218 0.0 0.0 0.00 0.00 0.00 74 1012.6
20260904235314 83 218 0.0 0.0 0.00 0.00 0.00 73 1012.3
20260904234807 83 201 0.0 0.0 0.00 0.00 0.00 73 1011.6
20260904234301 83 201 0.0 0.0 0.00 0.00 0.00 73 1011.6
20260904233756 83 201 0.0 0.0 0.00 0.00 0.00 73 1011.7
20260904233534 83 201 0.0 0.0 0.00 0.00 0.00 73 1011.8
20260904232743 84 203 0.0 0.0 0.00 0.00 0.00 73 1011.9
20260904232238 84 203 0.0 0.0 0.00 0.00 0.00 73 1012.1
20260904231732 84 80 0.0 0.0 0.00 0.00 0.00 73 1012.2
20260904231226 84 15 0.0 0.0 0.00 0.00 0.00 72 1012.2
20260904230720 84 221 0.0 0.0 0.00 0.00 0.00 72 1012.1
20260904230226 84 221 0.0 0.0 0.00 0.00 0.00 72 1011.9
20260904225708 84 212 0.0 0.0 0.00 0.00 0.00 72 1011.9
20260904225433 84 210 0.0 0.0 0.00 0.00 0.00 72 1011.8
20260904224656 84 202 0.0 0.0 0.00 0.00 0.00 72 1011.6
20260904224150 84 184 0.0 0.0 0.00 0.00 0.00 72 1011.5
20260904223644 85 184 0.0 5.0 0.00 0.00 0.00 71 1011.4
20260904223138 85 198 1.0 5.0 0.00 0.00 0.00 69 1011.4
20260904222632 86 213 2.0 7.0 0.00 0.00 0.00 70 1011.5
20260904222125 86 200 1.0 7.0 0.00 0.00 0.00 70 1011.7
20260904221620 86 183 1.0 5.0 0.00 0.00 0.00 70 1011.6
20260904221345 86 166 2.0 5.0 0.00 0.00 0.00 69 1011.6
20260904220608 86 177 2.0 5.0 0.00 0.00 0.00 68 1011.6
20260904220115 87 209 2.0 7.0 0.00 0.00 0.00 70 1011.7
20260904215556 87 161 3.0 7.0 0.00 0.00 0.00 69 1012.0
20260904215321 87 192 3.0 8.0 0.00 0.00 0.00 69 1012.1
20260904214544 87 111 3.0 8.0 0.00 0.00 0.00 69 1011.9
20260904214309 88 207 3.0 9.0 0.00 0.00 0.00 67 1012.1
20260904213532 89 202 4.0 9.0 0.00 0.00 0.00 65 1012.0
20260904213026 90 197 3.0 9.0 0.00 0.00 0.00 62 1012.2
20260904212520 91 159 2.0 7.0 0.00 0.00 0.00 61 1011.9
20260904212014 91 178 3.0 6.0 0.00 0.00 0.00 61 1011.8
20260904211508 91 175 3.0 11.0 0.00 0.00 0.00 64 1011.8
20260904211002 91 219 3.0 11.0 0.00 0.00 0.00 65 1011.8
20260904210456 91 185 3.0 9.0 0.00 0.00 0.00 64 1011.6
20260904205949 91 130 2.0 7.0 0.00 0.00 0.00 67 1011.7
20260904205444 91 180 2.0 10.0 0.00 0.00 0.00 67 1011.5
20260904204938 91 171 2.0 10.0 0.00 0.00 0.00 67 1011.2
20260904204703 91 173 2.0 7.0 0.00 0.00 0.00 68 1011.2
20260904203926 91 165 2.0 7.0 0.00 0.00 0.00 67 1011.1
20260904203419 91 165 2.0 7.0 0.00 0.00 0.00 67 1010.9
20260904202914 91 213 2.0 8.0 0.00 0.00 0.00 67 1011.1
20260904202408 91 174 3.0 9.0 0.00 0.00 0.00 66 1011.0
20260904202132 91 182 3.0 10.0 0.00 0.00 0.00 66 1011.0
20260904201355 91 143 3.0 10.0 0.00 0.00 0.00 65 1011.1
20260904200850 91 129 3.0 13.0 0.00 0.00 0.00 63 1011.1
20260904200615 91 175 4.0 13.0 0.00 0.00 0.00 67 1011.3
20260904195837 91 123 5.0 11.0 0.00 0.00 0.00 66 1011.5
20260904195332 91 164 4.0 11.0 0.00 0.00 0.00 65 1011.5
20260904194826 92 195 2.0 10.0 0.00 0.00 0.00 66 1011.6
20260904194320 93 205 2.0 8.0 0.00 0.00 0.00 63 1011.6
20260904193814 94 9 3.0 8.0 0.00 0.00 0.00 61 1011.4
20260904193308 94 5 3.0 8.0 0.00 0.00 0.00 63 1011.4
20260904192802 94 56 3.0 8.0 0.00 0.00 0.00 63 1011.5
20260904192256 94 41 3.0 8.0 0.00 0.00 0.00 62 1011.6
20260904192021 94 269 2.0 8.0 0.00 0.00 0.00 62 1011.7
20260904191244 94 120 2.0 6.0 0.00 0.00 0.00 60 1011.9
20260904190737 94 339 2.0 7.0 0.00 0.00 0.00 62 1012.0
20260904190232 94 313 3.0 8.0 0.00 0.00 0.00 63 1012.0
20260904185957 95 337 2.0 6.0 0.00 0.00 0.00 61 1011.9
20260904185220 96 49 1.0 5.0 0.00 0.00 0.00 57 1011.9
20260904184714 96 342 1.0 4.0 0.00 0.00 0.00 55 1011.9
20260904184208 95 56 2.0 4.0 0.00 0.00 0.00 60 1012.0
20260904183701 95 309 2.0 5.0 0.00 0.00 0.00 57 1012.2
20260904183156 95 349 2.0 5.0 0.00 0.00 0.00 57 1012.3
20260904182649 95 14 2.0 8.0 0.00 0.00 0.00 58 1012.3
20260904182144 95 26 2.0 8.0 0.00 0.00 0.00 60 1012.5
20260904181638 94 32 2.0 8.0 0.00 0.00 0.00 61 1012.5
20260904181132 94 292 2.0 5.0 0.00 0.00 0.00 60 1012.6
20260904180626 95 53 2.0 9.0 0.00 0.00 0.00 58 1012.6
20260904180121 96 49 3.0 9.0 0.00 0.00 0.00 58 1012.6
20260904175614 95 15 2.0 6.0 0.00 0.00 0.00 58 1012.6
20260904175107 96 127 2.0 5.0 0.00 0.00 0.00 58 1012.5
20260904174834 95 34 2.0 5.0 0.00 0.00 0.00 58 1012.7
20260904174055 95 70 2.0 8.0 0.00 0.00 0.00 58 1012.7
20260904173550 95 64 2.0 8.0 0.00 0.00 0.00 57 1012.8
20260904173044 95 240 2.0 7.0 0.00 0.00 0.00 58 1012.7
20260904172538 95 313 3.0 10.0 0.00 0.00 0.00 58 1012.8
20260904172031 95 27 4.0 10.0 0.00 0.00 0.00 57 1012.8
20260904171526 94 26 4.0 10.0 0.00 0.00 0.00 61 1012.9
20260904171032 94 343 3.0 9.0 0.00 0.00 0.00 59 1012.9
20260904170514 94 5 4.0 9.0 0.00 0.00 0.00 60 1012.9
20260904170008 94 318 3.0 9.0 0.00 0.00 0.00 60 1013.0
20260904165732 95 286 2.0 6.0 0.00 0.00 0.00 59 1013.1
20260904164955 95 325 1.0 6.0 0.00 0.00 0.00 59 1013.2
20260904164450 96 72 1.0 4.0 0.00 0.00 0.00 61 1013.2
20260904163944 95 331 0.0 2.0 0.00 0.00 0.00 60 1013.3
20260904163438 95 107 1.0 4.0 0.00 0.00 0.00 64 1013.3
20260904162932 94 130 1.0 4.0 0.00 0.00 0.00 61 1013.3
20260904162439 94 197 1.0 5.0 0.00 0.00 0.00 62 1013.4
20260904161920 94 198 1.0 6.0 0.00 0.00 0.00 62 1013.4
20260904161414 94 315 1.0 6.0 0.00 0.00 0.00 69 1013.4
20260904161139 94 343 1.0 4.0 0.00 0.00 0.00 62 1013.5
20260904160402 94 111 1.0 4.0 0.00 0.00 0.00 66 1013.5
20260904155855 94 50 1.0 5.0 0.00 0.00 0.00 63 1013.5
20260904155621 94 13 1.0 5.0 0.00 0.00 0.00 64 1013.5
20260904154844 93 73 0.0 2.0 0.00 0.00 0.00 65 1013.4
20260904154337 92 215 1.0 4.0 0.00 0.00 0.00 66 1013.3
20260904153831 91 223 1.0 4.0 0.00 0.00 0.00 66 1013.3
20260904153557 91 213 1.0 3.0 0.00 0.00 0.00 67 1013.4
20260904152819 91 213 1.0 3.0 0.00 0.00 0.00 67 1013.4
20260904152328 91 202 0.0 4.0 0.00 0.00 0.00 67 1013.4
20260904151808 91 73 1.0 4.0 0.00 0.00 0.00 68 1013.4
20260904151533 91 269 1.0 4.0 0.00 0.00 0.00 72 1013.4
20260904150756 91 186 1.0 4.0 0.00 0.00 0.00 69 1013.5
20260904150249 90 246 1.0 2.0 0.00 0.00 0.00 69 1013.4
20260904145744 90 205 0.0 3.0 0.00 0.00 0.00 71 1013.4
20260904145238 89 214 0.0 3.0 0.00 0.00 0.00 69 1013.4
20260904144732 89 221 1.0 4.0 0.00 0.00 0.00 71 1013.4
20260904144226 89 227 1.0 4.0 0.00 0.00 0.00 71 1013.4
20260904143720 89 134 1.0 4.0 0.00 0.00 0.00 73 1013.4
20260904143214 88 9 1.0 4.0 0.00 0.00 0.00 73 1013.4
20260904142938 87 215 1.0 2.0 0.00 0.00 0.00 73 1013.4
20260904142204 87 258 1.0 4.0 0.00 0.00 0.00 73 1013.4
20260904142158 87 275 1.0 4.0 0.00 0.00 0.00 73 1013.4
20260904141150 87 342 1.0 2.0 0.00 0.00 0.00 73 1013.3
20260904140914 87 240 1.0 2.0 0.00 0.00 0.00 74 1013.3
20260904140138 87 142 1.0 3.0 0.00 0.00 0.00 75 1013.3
20260904135632 86 244 1.0 3.0 0.00 0.00 0.00 76 1013.3
20260904135126 86 194 1.0 2.0 0.00 0.00 0.00 76 1013.3
20260904134619 86 197 1.0 2.0 0.00 0.00 0.00 76 1013.3
20260904134114 85 355 1.0 2.0 0.00 0.00 0.00 77 1013.4
20260904133608 84 173 1.0 4.0 0.00 0.00 0.00 77 1013.4
20260904133102 84 50 0.0 4.0 0.00 0.00 0.00 78 1013.4
20260904132556 83 237 0.0 2.0 0.00 0.00 0.00 79 1013.4
20260904132050 83 241 1.0 3.0 0.00 0.00 0.00 79 1013.5
20260904131544 83 33 1.0 4.0 0.00 0.00 0.00 79 1013.6
20260904131038 82 223 1.0 4.0 0.00 0.00 0.00 79 1013.6
20260904130546 82 296 1.0 2.0 0.00 0.00 0.00 80 1013.6
20260904130527 82 207 1.0 3.0 0.00 0.00 0.00 80 1013.6
20260904125520 82 34 1.0 3.0 0.00 0.00 0.00 80 1013.7
20260904125245 81 243 1.0 2.0 0.00 0.00 0.00 81 1013.7
20260904124508 81 254 1.0 3.0 0.00 0.00 0.00 81 1013.8
20260904124001 81 201 1.0 3.0 0.00 0.00 0.00 81 1013.8
20260904123456 80 269 0.0 2.0 0.00 0.00 0.00 82 1013.8
20260904122950 80 267 0.0 3.0 0.00 0.00 0.00 83 1013.8
20260904122444 80 239 0.0 3.0 0.00 0.00 0.00 83 1013.8
20260904121938 80 205 1.0 2.0 0.00 0.00 0.00 83 1013.9
20260904121432 79 209 1.0 2.0 0.00 0.00 0.00 83 1013.9
20260904120926 79 223 0.0 2.0 0.00 0.00 0.00 84 1013.9
20260904120419 79 223 0.0 2.0 0.00 0.00 0.00 84 1013.8
20260904115914 79 188 0.0 4.0 0.00 0.00 0.00 84 1013.8
20260904115407 79 182 0.0 4.0 0.00 0.00 0.00 85 1013.9
20260904114902 78 204 0.0 2.0 0.00 0.00 0.00 85 1013.8
20260904114355 78 189 0.0 1.0 0.00 0.00 0.00 85 1013.9
20260904113850 78 226 0.0 1.0 0.00 0.00 0.00 85 1013.7
20260904113343 78 195 0.0 1.0 0.00 0.00 0.00 85 1013.7
20260904112838 78 195 0.0 1.0 0.00 0.00 0.00 85 1013.8
20260904112332 78 195 0.0 1.0 0.00 0.00 0.00 84 1013.8
20260904111826 78 195 0.0 1.0 0.00 0.00 0.00 84 1013.9
20260904111320 78 142 0.0 0.0 0.00 0.00 0.00 84 1014.0
20260904111045 78 142 0.0 2.0 0.00 0.00 0.00 84 1013.9
20260904110308 78 142 0.0 2.0 0.00 0.00 0.00 84 1013.8
20260904105802 78 142 0.0 1.0 0.00 0.00 0.00 84 1013.9
20260904105256 78 142 0.0 0.0 0.00 0.00 0.00 84 1013.8
20260904104750 78 142 0.0 0.0 0.00 0.00 0.00 83 1013.9
20260904104244 78 142 0.0 1.0 0.00 0.00 0.00 83 1013.9
20260904104009 78 142 0.0 1.0 0.00 0.00 0.00 83 1013.8
20260904103232 78 142 0.0 0.0 0.00 0.00 0.00 83 1013.9
20260904102725 78 142 0.0 1.0 0.00 0.00 0.00 83 1013.8
20260904102220 78 142 0.0 1.0 0.00 0.00 0.00 82 1013.9
20260904101713 79 142 0.0 0.0 0.00 0.00 0.00 83 1014.0
20260904101207 79 142 0.0 1.0 0.00 0.00 0.00 83 1014.0
20260904100702 79 142 0.0 1.0 0.00 0.00 0.00 83 1014.0
20260904100155 79 142 0.0 1.0 0.00 0.00 0.00 83 1014.1
20260904095650 79 142 0.0 1.0 0.00 0.00 0.00 83 1014.0
20260904095144 79 103 0.0 1.0 0.00 0.00 0.00 83 1014.3
20260904094637 79 168 0.0 2.0 0.00 0.00 0.00 83 1014.0
20260904094132 79 168 0.0 3.0 0.00 0.00 0.00 82 1014.2
20260904093625 79 15 0.0 3.0 0.00 0.00 0.00 82 1014.4
20260904093120 80 163 0.0 0.0 0.00 0.00 0.00 82 1014.3
20260904092614 80 163 0.0 3.0 0.00 0.00 0.00 82 1014.3
20260904092108 80 163 1.0 3.0 0.00 0.00 0.00 82 1014.4
20260904091602 80 19 1.0 2.0 0.00 0.00 0.00 82 1014.4
20260904091056 80 30 0.0 2.0 0.00 0.00 0.00 82 1014.4
20260904090549 80 13 1.0 2.0 0.00 0.00 0.00 82 1014.3
20260904090044 80 12 0.0 2.0 0.00 0.00 0.00 81 1014.5
20260904085538 80 22 0.0 2.0 0.00 0.00 0.00 81 1014.1
20260904085032 80 22 0.0 2.0 0.00 0.00 0.00 81 1014.3
20260904084526 80 5 0.0 2.0 0.00 0.00 0.00 81 1014.1
20260904084020 80 5 1.0 2.0 0.00 0.00 0.00 81 1014.2
20260904083758 80 202 1.0 3.0 0.00 0.00 0.00 81 1013.9
20260904083011 80 176 0.0 3.0 0.00 0.00 0.00 81 1014.1
20260904083005 80 9 0.0 0.0 0.00 0.00 0.00 81 1014.3
20260904081955 80 202 1.0 9.0 0.00 0.00 0.00 81 1014.0
20260904081452 80 65 1.0 9.0 0.00 0.00 0.00 81 1014.7
20260904081445 80 38 2.0 11.0 0.00 0.00 0.00 82 1014.2
20260904080450 80 202 3.0 11.0 0.00 0.00 0.00 82 1014.2
20260904080203 80 45 1.0 9.0 0.00 0.00 0.00 81 1014.9
20260904075426 80 23 0.0 0.0 0.00 0.00 0.00 81 1013.7
20260904074920 80 28 0.0 0.0 0.00 0.00 0.00 81 1013.5
20260904074414 80 277 0.0 0.0 0.00 0.00 0.00 81 1013.4
20260904073908 80 84 0.0 0.0 0.00 0.00 0.00 81 1013.4
20260904073402 80 355 0.0 0.0 0.00 0.00 0.00 81 1013.4
20260904072855 80 355 0.0 0.0 0.00 0.00 0.00 81 1013.3
20260904072350 80 355 0.0 0.0 0.00 0.00 0.00 81 1013.3
20260904071843 80 355 0.0 0.0 0.00 0.00 0.00 81 1013.2
20260904071338 80 355 0.0 0.0 0.00 0.00 0.00 81 1013.2
20260904070832 80 355 0.0 0.0 0.00 0.00 0.00 81 1013.3
20260904070326 80 208 0.0 0.0 0.00 0.00 0.00 81 1013.3
20260904065820 81 142 0.0 0.0 0.00 0.00 0.00 81 1013.3
20260904065545 81 197 0.0 0.0 0.00 0.00 0.00 81 1013.2
20260904064808 81 207 0.0 0.0 0.00 0.00 0.00 81 1013.2
20260904064302 81 207 0.0 0.0 0.00 0.00 0.00 81 1013.3
20260904063756 81 211 0.0 0.0 0.00 0.00 0.00 81 1013.2
20260904063521 81 211 0.0 0.0 0.00 0.00 0.00 81 1013.3
20260904062744 81 194 0.0 3.0 0.00 0.00 0.00 81 1013.4
20260904062238 81 210 0.0 3.0 0.00 0.00 0.00 81 1013.4
20260904061732 81 325 0.0 0.0 0.00 0.00 0.00 81 1013.4
20260904061226 81 304 0.0 0.0 0.00 0.00 0.00 81 1013.3
20260904060720 81 194 0.0 0.0 0.00 0.00 0.00 81 1013.4
20260904060214 81 205 0.0 0.0 0.00 0.00 0.00 81 1013.4
20260904055708 81 209 0.0 3.0 0.00 0.00 0.00 81 1013.6
20260904055201 81 214 0.0 3.0 0.00 0.00 0.00 81 1013.7
20260904054656 81 211 0.0 0.0 0.00 0.00 0.00 81 1013.8
20260904054150 82 211 0.0 2.0 0.00 0.00 0.00 81 1013.9
20260904053915 82 210 0.0 2.0 0.00 0.00 0.00 81 1014.0
20260904053138 82 199 0.0 1.0 0.00 0.00 0.00 81 1014.1
20260904052632 82 236 0.0 0.0 0.00 0.00 0.00 81 1014.4
20260904052125 82 270 0.0 0.0 0.00 0.00 0.00 81 1014.5
20260904051620 82 267 0.0 0.0 0.00 0.00 0.00 81 1014.5
20260904051114 82 221 0.0 0.0 0.00 0.00 0.00 81 1014.4
20260904050608 82 200 0.0 0.0 0.00 0.00 0.00 81 1014.3
20260904050108 82 211 0.0 1.0 0.00 0.00 0.00 81 1014.3
20260904045827 82 234 0.0 1.0 0.00 0.00 0.00 81 1014.3
20260904045050 82 213 0.0 0.0 0.00 0.00 0.00 81 1014.4
20260904044544 82 203 0.0 1.0 0.00 0.00 0.00 81 1014.4
20260904044037 82 200 0.0 1.0 0.00 0.00 0.00 81 1014.5
20260904043532 82 202 0.0 0.0 0.00 0.00 0.00 81 1014.6
20260904043025 82 226 0.0 2.0 0.00 0.00 0.00 81 1014.6
20260904042520 82 198 0.0 2.0 0.00 0.00 0.00 81 1014.5
20260904042014 82 197 0.0 0.0 0.00 0.00 0.00 81 1014.5
20260904041508 82 237 0.0 1.0 0.00 0.00 0.00 82 1014.5
20260904041001 82 202 0.0 3.0 0.00 0.00 0.00 82 1014.5
20260904040456 83 196 1.0 3.0 0.00 0.00 0.00 82 1014.4
20260904035949 83 209 1.0 2.0 0.00 0.00 0.00 82 1014.4
20260904035444 83 192 1.0 4.0 0.00 0.00 0.00 82 1014.5
20260904034938 83 215 1.0 4.0 0.00 0.00 0.00 82 1014.5
20260904034431 83 194 1.0 5.0 0.00 0.00 0.00 83 1014.5
20260904033926 83 158 1.0 5.0 0.00 0.00 0.00 83 1014.5
20260904033420 83 198 1.0 2.0 0.00 0.00 0.00 83 1014.6
20260904032914 83 202 0.0 2.0 0.00 0.00 0.00 83 1014.5
20260904032408 83 194 0.0 2.0 0.00 0.00 0.00 83 1014.6
20260904031902 83 194 0.0 2.0 0.00 0.00 0.00 84 1014.6
20260904031356 83 180 0.0 2.0 0.00 0.00 0.00 84 1014.6
20260904030850 83 200 0.0 3.0 0.00 0.00 0.00 84 1014.5
20260904030614 83 176 0.0 3.0 0.00 0.00 0.00 84 1014.6
20260904025838 83 180 0.0 0.0 0.00 0.00 0.00 84 1014.6
20260904025332 83 180 0.0 0.0 0.00 0.00 0.00 84 1014.6
20260904024825 83 180 0.0 1.0 0.00 0.00 0.00 84 1014.6
20260904024320 83 206 0.0 1.0 0.00 0.00 0.00 84 1014.7
20260904023813 83 190 0.0 0.0 0.00 0.00 0.00 83 1014.8
20260904023308 83 178 0.0 0.0 0.00 0.00 0.00 83 1014.8
20260904022802 83 178 0.0 0.0 0.00 0.00 0.00 83 1014.8
20260904022527 83 178 0.0 0.0 0.00 0.00 0.00 83 1015.0
20260904021750 83 172 0.0 0.0 0.00 0.00 0.00 82 1015.0
20260904021243 83 172 0.0 0.0 0.00 0.00 0.00 82 1015.0
20260904020738 83 175 0.0 0.0 0.00 0.00 0.00 82 1015.0
20260904020232 83 160 0.0 0.0 0.00 0.00 0.00 82 1015.1
20260904015726 83 146 0.0 0.0 0.00 0.00 0.00 82 1015.2
20260904015220 84 146 0.0 0.0 0.00 0.00 0.00 82 1015.3
20260904014713 84 146 0.0 0.0 0.00 0.00 0.00 82 1015.3
20260904014207 84 146 0.0 0.0 0.00 0.00 0.00 82 1015.2
20260904013702 84 146 0.0 0.0 0.00 0.00 0.00 82 1015.2
20260904013156 84 146 0.0 0.0 0.00 0.00 0.00 82 1015.2
20260904012921 84 146 0.0 0.0 0.00 0.00 0.00 82 1015.1
20260904012415 84 171 0.0 0.0 0.00 0.00 0.00 82 1015.0
20260904011638 84 178 0.0 0.0 0.00 0.00 0.00 82 1015.0
20260904011403 84 178 0.0 0.0 0.00 0.00 0.00 82 1015.1
20260904010625 84 181 0.0 0.0 0.00 0.00 0.00 81 1015.0
20260904010120 84 198 0.0 0.0 0.00 0.00 0.00 81 1015.1
20260904005614 84 198 0.0 0.0 0.00 0.00 0.00 81 1015.0
20260904005108 85 198 0.0 0.0 0.00 0.00 0.00 80 1015.0
20260904004602 85 198 0.0 0.0 0.00 0.00 0.00 80 1014.9
20260904004326 85 198 0.0 0.0 0.00 0.00 0.00 80 1014.7
20260904003550 85 198 0.0 0.0 0.00 0.00 0.00 80 1014.6
20260904003044 85 198 0.0 0.0 0.00 0.00 0.00 80 1014.5
20260904002538 85 198 0.0 0.0 0.00 0.00 0.00 80 1014.5
20260904002306 85 198 0.0 0.0 0.00 0.00 0.00 80 1014.4
20260904001756 85 212 0.0 0.0 0.00 0.00 0.00 79 1014.3
20260904001020 85 212 0.0 0.0 0.00 0.00 0.00 79 1014.1
20260904000514 85 212 0.0 0.0 0.00 0.00 0.00 79 1014.1